Location: C.E.K. Mees Observatory
(42.7003°N, 77.4088°W)
Time: 02:26:14
(UTC-05:00)

Envisat - Pass Details

Date: 21 November 2019
Orbit: 764 x 766 km, 98.1° (Epoch: 10 December)

Event Time Altitude Azimuth Distance (km) Brightness Sun altitude
Rises 19:21:24 0° 207° (SSW) 3,218 6.6 -29.0°
Reaches altitude 10° 19:24:24 10° 225° (SW) 2,297 6.0 -29.5°
Maximum altitude 19:27:51 18° 269° (W) 1,795 5.6 -30.2°
Drops below altitude 10° 19:31:19 10° 312° (NW) 2,308 6.0 -30.8°
Sets 19:34:21 0° 331° (NNW) 3,239 6.6 -31.4°
